阿斯特拉 1L星 (ASTRA 1L)

导读

ASTRA 1L是由SES公司运营的商业通信卫星,属于阿斯特拉Astra-1系列卫星,定点于东经19.2度地球同步轨道,于2007年5月4日发射升空。该卫星主要面向欧洲地区提供电视直播到户等通信服务,依托大容量转发器实现广域信号覆盖,是SES卫星组网中保障欧洲广播通信服务的重要节点,服役多年来持续为用户稳定提供高清电视传输等业务。

基本信息
目录编号:
31306
目录名称:
ASTRA 1L
国际标识:
2007-016A
轨道中心:
EARTH
卫星名称:
阿斯特拉 1L星
卫星全名:
阿斯特拉 1L星 (ASTRA 1L)
卫星状态:
在轨 (已飞行7054 天)
发射日期:
2007-05-04 UTC
国别 :
(SES)
星等 :
--
轨道信息
数据来源 国际轨道数据 AOE轨道数据
星历时间 2026-08-26T02:06:12+0800
7小时前
查看轨道信息
2026-08-24T05:00:00+0800
2天前
查看轨道信息
半长轴 42164.644km 42164.504km
偏心率 0.0005161 0.0005171
轨道倾角 1.494° 1.490°
近地点辐角 70.499° 67.140°
升交点赤经 80.922° 80.946°
平近点角 69.650° 114.576°
近地点 35764.745km 35764.563km
远地点 35808.269km 35808.171km
周期 1436.092分钟 1436.085分钟
每日圈数 1.002721 1.002726
详细信息
卫星平台:
A2100
平衡模式:
三轴稳定
覆盖范围:
全球
运营商:
欧洲卫星公司
运营商所在国:
卢森堡
制造商(研发单位):
洛克希德·马丁公司
制造商所在国:
美国
使用方式:
暂无
卫星简介
阿斯特拉卫星是由SES阿斯特拉运营的商业通信卫星,主要提供电视直播到户业务。Astra卫星包括三个系列共19颗卫星,分别定点在三个不同轨位:Astra-1系列包括十三颗卫星,定点东经19.2度;Astra-2系列包括4颗卫星,定点东经28.2度;Astra-3系列包括2颗卫星,定点东经23.5度。该卫星仍在工作。
2D轨道图
3D轨道图
轨道高度分析图
轨道倾角分析图
轨道综合分析图
查看轨道综合分析图